Regional Weather Roundup
Issued by NWS

Home | Current Version | Previous Version | Graphics & Text | Print | Product List | Glossary On
Versions: 1 2 3 4 5 6 7 8 9 10 11 12 13 14 15 16 17 18 19 20 21 22 23 24 25 26 27 28 29 30 31 32 33 34 35 36 37 38 39 40 41 42 43 44 45 46 47 48 49 50
000
ASUS43 KMPX 211310
RWRMN
WEATHER ROUNDUP FOR MINNESOTA
NATIONAL WEATHER SERVICE TWIN CITIES/CHANHASSEN MN
800 AM CDT MON MAY 21 2018


NOTE: "FAIR" INDICATES FEW OR NO CLOUDS BELOW 12,000 FEET WITH NO
SIGNIFICANT WEATHER AND/OR OBSTRUCTIONS TO VISIBILITY. N/A MEANS
CURRENT SKY AND/OR WEATHER CONDITIONS ARE NOT AVAILABLE.

MNZ060>063-068>070-211400-
   Twin Cities Metro

CITY           SKY/WX    TMP DP  RH WIND       PRES   REMARKS
TWIN CITIES    CLOUDY    61  49  64 E13       30.09F
ST PAUL        CLOUDY    60  46  59 E9        30.10F
CRYSTAL        CLOUDY    61  47  59 E7        30.08F
BLAINE         PTSUNNY   61  46  59 E7        30.10S
LAKEVILLE      CLOUDY    57  52  82 E9        30.08S
EDEN PRAIRIE   CLOUDY    60  50  69 SE9       30.08S
SOUTH ST PAUL  PTSUNNY   60  45  57 E7        30.10S
LAKE ELMO      PTSUNNY   59  46  63 E6        30.11F
$$
MNZ001>005-007-008-013>017-022>024-027-028-211400-
   Northwest Minnesota

CITY           SKY/WX    TMP DP  RH WIND       PRES   REMARKS
BEMIDJI        FAIR      52  44  74 CALM      30.13S
HALLOCK        FAIR      55  41  58 SE7       30.08F
ROSEAU         FAIR      50  43  76 CALM      30.11S
WARROAD        FAIR      55  43  62 CALM      30.12S
THIEF RVR FALL FAIR      57  39  51 SE5       30.12S
CROOKSTON      FAIR      57  39  51 S6        30.10S
FOSSTON        FAIR      57  37  47 CALM      30.11F
DETROIT LAKES  FAIR      55  36  47 CALM      30.11S
MOORHEAD       FAIR      55  37  50 E5        30.09S
PARK RAPIDS    FAIR      53  40  61 E5        30.11S
MAHNOMEN       FAIR      55  38  52 E5        30.10S
$$
MNZ006-009>011-018-025>026-211400-
   North Central Minnesota

CITY           SKY/WX    TMP DP  RH WIND       PRES   REMARKS
BAUDETTE       FAIR      53  44  71 S3        30.13S
FLAG ISLAND    FAIR      54  43  66 SE3       30.11S
INTL FALLS     FAIR      56  39  53 S3        30.14S
WASKISH        CLOUDY    55  39  54 CALM      30.13S
BIG FORK       FAIR      54  41  62 CALM      30.14F
LONGVILLE      FAIR      46  45  93 CALM      30.13S
GRAND RAPIDS   FAIR      51  34  52 SE3       30.17S
CRANE LAKE     FAIR      54  37  54 CALM      30.17S
ORR            FAIR      54  34  47 CALM      30.13F
COOK           FAIR      52  39  62 CALM      30.16F
WALKER         FAIR      51  45  79 CALM      30.12F
$$
MNZ012-019>021-037-211400-
   Northeast Minnesota

CITY           SKY/WX    TMP DP  RH WIND       PRES   REMARKS
DULUTH         FAIR      57  37  47 CALM      30.15F
ELY            FAIR      52  37  58 CALM      30.17S
HIBBING        FAIR      48  38  68 CALM      30.15F
EVELETH        FAIR      50  37  62 CALM      30.17F
DULUTH HARBOR  FAIR      48  39  71 CALM      30.17F
TWO HARBORS    FAIR      57  48  72 CALM      30.14F
SILVER BAY     FAIR      55  43  62 CALM      30.15F
GRAND MARAIS     N/A     42  35  76 CALM      30.17F
G MARAIS ARPRT FAIR      61  28  29 CALM      30.19S
$$
MNZ029>031-032-039>041-046>048-054>057-064-211400-
   West Central Minnesota

CITY           SKY/WX    TMP DP  RH WIND       PRES   REMARKS
FERGUS FALLS   PTSUNNY   57  37  47 E5        30.05S
WHEATON        PTSUNNY   57  39  51 E3        30.08F
MORRIS         CLOUDY    57  43  58 E8        30.07S
ALEXANDRIA     CLOUDY    55  43  63 E6        30.10S
ELBOW LAKE     CLOUDY    56  40  56 SE8       30.08S
WADENA         FAIR      48  37  66 CALM      30.10S
GLENWOOD       PTSUNNY   52  45  76 NE5       30.10S
APPLETON       CLOUDY    59  50  72 E8        30.06S
BENSON         CLOUDY    57  48  72 SE7       30.09S
ORTONVILLE     CLOUDY    57  48  72 E8        30.06S
MADISON        CLOUDY    61  59  94 SE8       30.05F
WILLMAR        CLOUDY    55  54  94 E5        30.10S
$$
MNZ033>034-036-042>043-049>051-058-059-211400-
   Central Minnesota

CITY           SKY/WX    TMP DP  RH WIND       PRES   REMARKS
ST CLOUD       LGT RAIN  53  45  74 E6        30.10S
SAUK CENTRE    CLOUDY    53  42  65 E3        30.10S
PAYNESVILLE    CLOUDY    53  50  92 E3        30.10R
AITKIN         FAIR      48  37  66 CALM      30.12F
PINE RIVER     FAIR      48  39  71 CALM      30.15S
BRAINERD       FAIR      60  42  51 SE7       30.12F
STAPLES        PTSUNNY   52  37  58 E3        30.10F
LONG PRAIRIE   CLOUDY    52  37  58 NE5       30.10S
LITTLE FALLS   PTSUNNY   54  41  62 E3        30.10F
LITCHFIELD     DRIZZLE   55  55 100 E6        30.09S
BUFFALO        FAIR      58  48  68 NE6       30.09S
MAPLE LAKE     PTSUNNY   56  52  85 NE3       30.10S
HUTCHINSON     LGT RAIN  56  55  97 E5        30.09S
$$
MNZ037-044-045-052-053-211400-
   East Central Minnesota

CITY           SKY/WX    TMP DP  RH WIND       PRES   REMARKS
PRINCETON      CLOUDY    55  45  67 NE6       30.11S
MORA           FAIR      54  43  66 CALM      30.14F
CAMBRIDGE      CLOUDY    57  45  62 E5        30.12S
RUSH CITY      CLOUDY    52  44  75 NE3       30.13S
MOOSE LAKE     FAIR      48  37  66 NE3       30.14S
HINCKLEY       PTSUNNY   50  43  76 CALM      30.14S
CLOQUET        FAIR      54  34  47 CALM      30.15S
MCGREGOR       FAIR      52  39  62 CALM      30.15S
$$
MNZ071>073-080-081-089-090-097-098-211400-
   Southwest Minnesota

CITY           SKY/WX    TMP DP  RH WIND       PRES   REMARKS
MONTEVIDEO     CLOUDY    57  54  88 SE10      30.06F
GRANITE FALLS  CLOUDY    58  56  92 E5        30.08S FOG
CANBY          CLOUDY    57  56  97 E7        30.06F FOG
MARSHALL       LGT RAIN  56  55  97 SE7       30.06S FOG
REDWOOD FALLS  RAIN      56  56 100 SE3       30.06S FOG
OLIVIA         CLOUDY    55  54  94 E6        30.06S
PIPESTONE      DRIZZLE   55  54  94 SE5       30.05S
WINDOM         DRIZZLE   55  41  58 SE3       30.06R
WORTHINGTON    CLOUDY    54  54 100 E7        30.06S FOG
JACKSON        CLOUDY    54  54 100 SE6       30.07R FOG
TRACY          CLOUDY    56  56 100 E3        30.06R FOG
SLAYTON        CLOUDY    54  54  98 SE7       30.06S FOG
$$
MNZ065>067-074>077-082>085-091>093-211400-
   South Central Minnesota

CITY           SKY/WX    TMP DP  RH WIND       PRES   REMARKS
MANKATO        CLOUDY    57  53  86 E12       30.07F
NEW ULM        CLOUDY    55  54  94 E7        30.07R
ST JAMES       CLOUDY    55  54  94 E7        30.07S
FAIRMONT       CLOUDY    56  54  93 SE12      30.06S
GLENCOE        DRIZZLE   58  58 100 E6        30.07F
FARIBAULT      CLOUDY    59  52  77 CALM      30.09R
OWATONNA       PTSUNNY   57  52  82 SE8       30.08R
WASECA         CLOUDY    55  52  88 SE7       30.09S
ALBERT LEA     CLOUDY    57  52  82 SE9       30.07S
$$
MNZ078>079-086>088-094>096-211400-
   Southeast Minnesota

CITY           SKY/WX    TMP DP  RH WIND       PRES   REMARKS
ROCHESTER      LGT RAIN  55  51  86 E12       30.09F
RED WING       PTSUNNY   59  43  55 E8        30.09S
STANTON        CLOUDY    59  50  71 E8        30.07F
DODGE CENTER   CLOUDY    57  48  72 E9        30.09R
WINONA         CLOUDY    55  45  67 SE9       30.09S
AUSTIN         CLOUDY    55  50  82 SE10      30.07S
PRESTON        CLOUDY    54  50  86 E7        30.09F
$$
ABBREVIATIONS USED IN REMARKS
   TC - TEMPERATURES IN CELSIUS
  WCI - WIND CHILL INDEX
   HX - HEAT INDEX
  VSB - VISIBILITY
$$



USA.gov is the U.S. government's official web portal to all federal, state and local government web resources and services.